Wind_Speed
37 37 36 35 35 35 35 34 34 34 35 35 36 36 37 37 38 38 39 39 40 40 41 41 41 42 43 44 44 44 45 46 47 47 48 48 49 49 49 49 49 48 49
39 38 37 36 36 36 36 36 35 36 36 37 37 38 38 38 39 40 41 41 42 42 43 44 44 44 44 44 45 45 46 47 47 48 49 50 50 50 50 50 50 50 51
39 39 38 37 37 36 36 36 36 37 37 38 38 39 39 40 41 41 42 43 44 44 45 45 46 46 46 46 46 46 46 47 48 49 50 50 51 51 51 51 52 52 53
39 39 39 38 37 37 37 37 38 38 38 38 39 40 40 41 42 43 43 44 45 45 46 46 47 47 48 48 48 48 49 49 49 50 50 51 52 53 53 53 53 54 55
40 40 39 39 38 38 38 38 39 39 39 39 40 41 42 42 43 44 45 45 45 46 46 47 47 48 48 49 50 50 51 50 50 50 51 52 53 54 55 55 56 56 57
40 40 39 39 39 39 39 39 40 40 40 41 41 42 43 44 44 45 45 45 45 46 47 48 49 49 50 50 51 51 51 51 51 52 53 54 55 56 57 57 57 57 56
40 40 39 39 39 39 40 41 41 41 41 42 42 43 44 44 44 45 45 46 46 46 47 48 49 50 50 51 52 52 53 53 53 54 55 56 57 57 57 57 57 56 56
39 39 39 40 40 40 40 41 41 41 41 42 43 43 44 44 45 45 46 46 46 46 48 49 50 51 51 52 53 53 54 54 54 55 56 56 56 56 56 57 57 57 56
39 39 40 40 40 40 40 41 41 41 42 42 43 44 44 44 45 46 46 46 46 47 48 50 51 51 52 53 54 54 54 54 55 55 56 56 56 56 57 57 57 57 57
38 39 40 40 40 40 40 41 41 42 42 43 43 43 44 44 45 45 46 46 47 47 48 50 51 52 52 53 54 55 56 56 56 56 56 56 56 56 56 56 57 57 58
38 39 39 40 40 40 41 41 41 42 42 42 43 43 44 44 45 45 46 47 47 48 49 51 51 52 53 53 54 54 54 55 55 55 55 55 55 55 55 56 56 57 57
38 38 39 39 40 40 41 41 41 42 42 42 42 42 43 44 44 46 47 47 48 48 50 50 51 52 52 53 53 54 54 54 54 53 54 54 54 54 55 55 56 56 56
38 38 39 39 40 40 40 41 41 42 42 42 42 43 43 44 45 46 46 47 47 49 49 50 51 51 52 52 53 54 54 53 53 53 53 53 53 54 55 55 55 55 55
38 38 38 39 39 40 40 41 41 41 42 42 42 43 43 44 45 46 46 46 47 48 49 50 50 51 52 53 54 54 53 53 53 53 53 53 53 53 53 53 53 53 54
37 38 38 39 39 39 40 40 41 41 42 42 43 43 44 45 45 46 46 47 48 49 49 50 50 51 52 52 53 53 53 53 53 52 52 52 52 51 52 52 52 52 52
38 38 39 39 39 39 39 39 40 41 42 42 43 44 44 45 45 46 46 47 48 49 49 50 50 51 51 52 52 52 52 52 52 51 51 51 51 51 51 51 51 51 51
39 40 40 40 40 40 40 40 40 41 42 42 43 43 44 45 45 46 46 47 48 48 49 50 50 51 51 52 52 52 52 51 51 50 50 50 51 50 50 50 50 51 51
41 41 40 40 39 39 39 39 40 40 40 41 42 43 44 45 46 47 47 48 48 48 49 49 50 50 50 51 51 51 50 49 49 49 50 50 50 50 50 50 50 50 51
40 39 39 39 38 39 39 39 39 40 41 41 43 43 44 45 45 46 47 47 48 48 49 49 49 49 49 49 49 49 49 49 49 50 50 50 50 49 50 49 49 48 48
39 39 38 39 39 39 39 39 40 40 41 41 42 43 44 44 45 45 46 46 47 47 48 48 47 47 47 48 48 49 48 48 49 49 49 49 48 48 48 47 47 46 45
37 37 37 38 38 39 40 40 40 40 41 41 42 42 43 43 44 44 45 45 45 45 45 45 46 46 47 47 47 48 48 48 47 47 47 46 46 46 46 46 45 44 43
36 36 36 37 38 38 39 40 40 40 41 41 41 41 42 42 43 43 43 43 43 43 43 44 44 44 45 46 46 46 46 46 45 45 45 45 45 44 44 44 43 43 43
35 36 36 37 38 39 39 40 40 40 40 40 40 40 40 41 41 41 41 41 41 41 42 42 43 43 43 44 44 44 43 43 44 44 44 43 43 42 42 42 41 41 41
36 37 37 38 38 38 38 38 38 38 38 38 38 39 39 39 39 39 39 39 40 41 41 41 41 42 42 42 42 42 42 42 43 43 42 42 42 41 40 40 39 39 38
36 36 36 36 36 36 36 36 37 37 37 37 37 37 37 37 37 38 38 39 39 40 39 39 40 41 41 41 41 41 41 41 41 41 41 41 40 39 39 38 38 37 36
34 35 35 34 35 35 35 36 36 35 35 35 35 35 36 36 37 37 37 38 38 38 38 39 39 40 40 40 39 39 40 40 40 40 40 38 38 38 37 37 36 35 34
Wind_Direction
249 249 249 250 251 252 253 255 257 259 260 261 263 265 267 267 268 270 271 271 271 272 272 273 275 276 277 278 279 279 280 280 279 279 278 278 279 279 278 278 277 276 276
248 249 250 250 251 253 254 256 258 260 261 263 264 266 267 268 269 270 271 272 272 272 272 273 275 276 278 278 278 280 281 281 280 280 279 279 279 279 278 278 277 276 276
249 249 249 250 251 253 255 257 259 261 262 263 265 266 268 269 271 272 272 272 273 273 273 273 275 277 278 279 279 281 282 283 282 282 282 281 280 279 279 279 278 277 277
249 249 249 250 252 254 255 257 259 261 263 264 266 267 269 271 272 272 272 272 273 273 274 274 275 276 278 279 281 282 283 284 283 282 282 283 283 282 281 280 280 279 278
250 250 250 251 252 254 257 258 260 262 263 265 266 268 270 271 272 272 273 273 273 274 274 274 275 276 278 279 281 282 283 284 284 283 283 284 284 285 284 282 281 280 280
250 250 251 252 253 256 258 260 261 263 264 265 267 269 270 272 273 273 273 273 273 273 274 274 275 276 278 280 281 282 283 284 284 284 284 285 286 286 286 284 284 282 281
250 250 251 253 255 258 260 261 263 265 266 267 268 270 271 272 273 273 273 274 273 274 275 275 276 277 279 281 282 283 283 284 285 285 285 286 286 287 286 285 284 283 282
250 251 252 254 256 259 261 262 264 266 267 269 269 270 271 272 272 273 274 274 274 274 276 277 278 279 281 282 283 284 284 284 285 286 286 287 288 287 286 285 285 284 283
251 252 253 255 257 260 262 263 264 266 268 269 270 271 271 271 272 272 273 274 275 276 277 278 279 280 282 283 283 284 285 285 286 287 287 287 287 287 287 286 285 285 284
251 253 254 256 259 261 262 263 265 266 268 269 270 270 270 271 271 272 273 274 275 277 278 280 280 281 282 284 284 285 286 286 286 287 287 287 288 287 287 286 285 285 286
253 254 255 257 259 261 262 263 265 266 268 269 270 269 270 271 272 273 274 275 276 277 279 280 281 283 284 285 286 286 286 287 287 287 287 288 288 288 288 287 286 286 286
255 256 257 259 260 262 262 264 265 266 267 268 269 270 270 271 272 273 275 277 278 278 279 281 282 284 285 285 286 286 287 287 287 287 288 288 288 288 288 287 287 286 287
255 257 258 259 261 262 263 264 266 267 267 269 270 271 271 271 273 275 276 277 278 279 281 282 283 285 285 285 286 287 288 288 288 288 288 289 288 289 289 288 287 287 287
256 257 258 260 262 263 264 266 267 268 268 269 269 270 271 272 274 275 276 277 279 280 282 283 284 285 285 286 287 288 288 288 288 289 289 289 290 290 289 289 288 288 288
256 258 259 261 262 263 265 266 267 267 268 268 269 271 272 274 274 275 275 277 279 281 282 283 285 286 287 287 287 288 288 288 288 289 290 291 291 290 290 289 289 289 288
255 258 260 260 262 262 263 264 266 266 267 269 270 271 273 274 274 275 276 278 280 282 282 283 285 286 287 288 288 289 289 289 289 289 290 291 290 290 290 291 290 290 289
257 259 260 261 262 263 264 265 266 267 268 269 271 272 273 274 275 276 278 279 281 282 284 285 286 287 288 288 289 290 290 290 290 290 290 291 291 291 290 290 290 290 289
258 259 260 261 261 263 264 265 267 267 268 269 271 273 274 275 276 277 278 280 281 283 284 285 286 287 288 289 289 290 290 290 291 291 291 292 292 292 291 291 290 290 289
256 257 259 261 262 263 264 266 267 267 268 269 271 273 274 275 276 277 278 280 282 283 284 286 287 288 289 289 290 290 290 290 291 292 292 293 293 293 292 292 291 291 290
256 256 259 261 262 263 265 267 267 267 268 270 272 272 274 276 277 278 280 281 282 283 284 286 287 288 289 290 290 290 291 292 292 292 292 293 293 293 293 293 292 292 291
255 256 258 260 262 264 266 267 267 267 269 271 273 273 275 277 278 279 281 282 283 284 285 286 287 288 289 290 291 292 293 293 293 293 293 293 293 294 294 293 294 293 293
255 256 258 260 262 264 266 268 268 269 270 272 273 275 276 277 279 280 282 282 283 284 285 286 287 289 290 291 292 293 294 294 294 294 294 294 294 294 294 294 294 294 293
256 258 260 262 264 266 267 268 268 270 271 272 273 275 277 278 279 280 282 283 284 285 286 287 289 290 291 292 293 294 294 294 294 296 296 295 295 295 295 295 295 296 295
259 261 262 264 265 266 267 268 269 271 271 272 273 275 276 278 279 280 282 283 284 286 287 289 290 291 292 293 293 294 294 295 296 297 297 297 296 296 296 296 296 296 296
259 261 262 263 264 265 266 268 270 271 271 272 273 274 276 278 280 281 282 283 286 287 289 290 292 293 293 294 294 295 295 296 297 298 298 297 296 296 296 296 295 296 295
259 260 262 262 263 265 266 268 270 270 271 272 273 275 277 279 281 282 283 285 287 288 290 292 293 294 295 296 296 296 297 297 299 299 299 298 297 296 296 296 296 296 294
Height
5760 5762 5764 5766 5768 5770 5771 5773 5774 5775 5775 5776 5776 5777 5777 5777 5776 5776 5775 5775 5774 5774 5773 5772 5770 5769 5768 5766 5764 5763 5761 5759 5756 5754 5753 5752 5750 5748 5747 5746 5745 5744 5742
5751 5753 5756 5758 5760 5762 5763 5765 5766 5766 5767 5767 5768 5768 5768 5767 5767 5766 5766 5765 5765 5764 5763 5762 5760 5759 5757 5756 5754 5752 5750 5747 5745 5742 5740 5739 5739 5737 5735 5733 5732 5731 5730
5741 5744 5747 5749 5751 5753 5755 5756 5757 5757 5758 5758 5758 5758 5758 5758 5758 5757 5756 5755 5754 5753 5752 5751 5750 5748 5746 5745 5743 5741 5738 5736 5733 5730 5728 5726 5725 5724 5724 5721 5719 5718 5716
5732 5734 5737 5740 5742 5744 5745 5747 5747 5748 5748 5748 5748 5748 5748 5748 5748 5746 5745 5744 5743 5742 5741 5740 5739 5737 5735 5734 5732 5730 5727 5724 5722 5719 5716 5713 5711 5709 5710 5709 5706 5704 5702
5722 5725 5728 5730 5732 5734 5735 5737 5738 5738 5738 5738 5738 5738 5738 5737 5736 5735 5734 5733 5732 5731 5730 5729 5728 5726 5724 5722 5720 5718 5716 5713 5710 5707 5704 5701 5699 5696 5694 5694 5693 5690 5687
5713 5715 5718 5720 5722 5724 5725 5727 5727 5728 5728 5728 5727 5727 5727 5726 5725 5724 5723 5722 5721 5720 5719 5718 5717 5715 5713 5711 5709 5706 5703 5701 5698 5695 5692 5689 5686 5683 5679 5678 5676 5674 5673
5703 5705 5708 5710 5712 5714 5715 5716 5716 5717 5716 5716 5716 5716 5715 5714 5713 5712 5712 5711 5710 5709 5708 5706 5705 5703 5701 5699 5697 5694 5691 5688 5685 5682 5678 5675 5672 5668 5665 5662 5660 5658 5657
5694 5696 5698 5701 5702 5704 5704 5705 5705 5705 5705 5705 5705 5704 5704 5703 5702 5701 5701 5700 5698 5697 5696 5695 5693 5691 5689 5686 5683 5681 5678 5675 5671 5668 5664 5661 5657 5653 5650 5647 5644 5643 5642
5684 5687 5689 5690 5692 5693 5693 5694 5694 5694 5694 5694 5693 5693 5692 5692 5691 5690 5689 5688 5687 5686 5684 5682 5680 5678 5676 5673 5670 5667 5664 5661 5657 5654 5650 5646 5643 5639 5635 5632 5628 5626 5625
5675 5677 5678 5680 5681 5682 5683 5683 5683 5683 5683 5683 5682 5682 5681 5680 5680 5679 5678 5677 5675 5673 5672 5670 5668 5665 5663 5660 5657 5653 5650 5646 5643 5639 5635 5632 5628 5624 5620 5617 5613 5610 5608
5665 5666 5668 5670 5671 5671 5672 5672 5672 5672 5672 5671 5671 5670 5669 5669 5668 5667 5666 5665 5663 5661 5659 5657 5655 5652 5649 5646 5643 5639 5636 5632 5629 5625 5621 5617 5613 5609 5606 5602 5599 5595 5592
5654 5656 5658 5659 5660 5660 5661 5661 5661 5661 5660 5660 5659 5659 5658 5657 5656 5655 5654 5652 5651 5649 5647 5644 5642 5639 5636 5632 5629 5626 5622 5618 5615 5611 5607 5604 5599 5595 5591 5587 5584 5580 5577
5644 5646 5647 5648 5649 5649 5649 5650 5650 5650 5649 5649 5648 5648 5647 5646 5645 5644 5642 5640 5638 5636 5634 5631 5629 5626 5623 5619 5616 5612 5608 5605 5601 5597 5593 5589 5585 5582 5577 5573 5569 5566 5562
5633 5635 5636 5637 5638 5638 5638 5639 5639 5638 5638 5638 5637 5637 5636 5635 5634 5632 5630 5628 5626 5624 5622 5619 5616 5613 5610 5606 5602 5599 5595 5591 5587 5583 5579 5575 5571 5567 5563 5559 5555 5551 5547
5623 5624 5626 5626 5627 5627 5627 5628 5627 5627 5627 5626 5626 5625 5624 5623 5621 5620 5618 5616 5614 5612 5609 5606 5604 5600 5597 5593 5589 5585 5581 5577 5573 5569 5565 5561 5557 5553 5549 5545 5541 5537 5533
5612 5614 5615 5616 5616 5617 5617 5617 5616 5616 5616 5615 5615 5614 5613 5611 5610 5608 5606 5604 5602 5599 5597 5594 5591 5588 5584 5580 5575 5571 5567 5564 5560 5556 5552 5548 5544 5539 5535 5531 5527 5523 5519
5601 5603 5604 5605 5605 5606 5606 5606 5605 5605 5604 5604 5603 5602 5601 5599 5598 5596 5594 5592 5590 5587 5584 5581 5578 5575 5571 5567 5562 5558 5554 5550 5547 5543 5539 5535 5530 5526 5522 5518 5514 5509 5505
5590 5592 5593 5594 5594 5595 5595 5595 5594 5594 5593 5592 5592 5590 5589 5588 5586 5584 5582 5580 5578 5575 5572 5569 5565 5562 5558 5554 5550 5546 5541 5538 5534 5530 5526 5522 5518 5513 5508 5505 5501 5496 5492
5579 5580 5582 5583 5583 5584 5584 5584 5584 5583 5582 5581 5580 5579 5577 5576 5574 5572 5570 5568 5565 5562 5559 5556 5552 5549 5545 5541 5537 5533 5529 5525 5521 5517 5513 5508 5504 5500 5495 5491 5487 5483 5479
5568 5570 5571 5572 5573 5573 5573 5573 5573 5572 5571 5570 5569 5568 5566 5564 5563 5560 5558 5555 5553 5550 5547 5543 5540 5537 5533 5529 5525 5520 5517 5513 5509 5505 5500 5495 5491 5486 5481 5477 5474 5471 5467
5558 5560 5561 5562 5562 5562 5562 5562 5562 5561 5560 5559 5558 5557 5555 5553 5551 5549 5546 5543 5541 5538 5535 5532 5528 5525 5521 5517 5513 5508 5504 5500 5496 5492 5488 5483 5478 5474 5469 5465 5461 5458 5454
5548 5549 5550 5551 5551 5552 5552 5551 5551 5550 5550 5549 5547 5546 5544 5542 5539 5537 5535 5532 5529 5526 5523 5520 5517 5513 5509 5505 5501 5497 5492 5488 5484 5480 5476 5471 5466 5462 5458 5453 5450 5445 5441
5538 5539 5540 5540 5541 5541 5541 5540 5540 5539 5539 5538 5536 5534 5533 5531 5528 5526 5523 5521 5518 5515 5512 5509 5505 5502 5498 5494 5489 5485 5480 5476 5472 5468 5464 5459 5455 5451 5447 5443 5438 5434 5430
5528 5529 5530 5530 5530 5530 5530 5530 5529 5529 5528 5527 5525 5524 5522 5520 5517 5515 5512 5510 5507 5504 5501 5497 5494 5490 5486 5482 5478 5474 5470 5465 5461 5457 5453 5448 5444 5440 5436 5432 5427 5423 5419
5518 5519 5519 5520 5520 5520 5519 5519 5519 5518 5517 5516 5514 5513 5511 5509 5507 5504 5502 5499 5496 5493 5490 5486 5483 5479 5475 5471 5467 5462 5459 5455 5451 5446 5442 5438 5434 5429 5425 5421 5417 5413 5410
5507 5508 5509 5509 5509 5509 5509 5509 5508 5507 5507 5505 5504 5502 5501 5499 5496 5494 5491 5488 5485 5482 5479 5475 5472 5468 5464 5460 5456 5452 5448 5444 5440 5436 5432 5427 5423 5419 5415 5411 5408 5404 5400